This is the latest recevied weather packets stored in our database for station/object M0JUI-1. If no packets are shown the sender has not sent any weather packets the latest 10 day(s).
| Time | Temp. | Humidity | Pressure | Rain* | Wind** | Luminosity | Snow |
|---|---|---|---|---|---|---|---|
| 1788503437 | 14.44° C | 24% | 1009.1 hPa | 0 mm | - | 19 W/m² | - |
| 1788503109 | 14.44° C | 24% | 1009 hPa | 0 mm | - | 14 W/m² | - |
| 1788502809 | 14.44° C | 25% | 1008.9 hPa | 0.25 mm | - | 7 W/m² | - |
| 1788502497 | 14.44° C | 25% | 1008.8 hPa | 0.25 mm | - | 11 W/m² | - |
| 1788502197 | 14.44° C | 25% | 1008.8 hPa | 0.51 mm | - | 8 W/m² | - |
| 1788501897 | 14.44° C | 25% | 1008.8 hPa | 0.76 mm | - | 6 W/m² | - |
| 1788501598 | 14.44° C | 25% | 1008.6 hPa | 1.02 mm | - | 5 W/m² | - |
| 1788501297 | 14.44° C | 25% | 1008.6 hPa | 1.27 mm | - | 6 W/m² | - |
| 1788500997 | 14.44° C | 25% | 1008.4 hPa | 1.52 mm | - | 3 W/m² | - |
| 1788500697 | 14.44° C | 25% | 1008.6 hPa | 1.78 mm | - | 2 W/m² | - |
| 1788500397 | 14.44° C | 25% | 1008.5 hPa | 1.78 mm | - | 2 W/m² | - |
| 1788500097 | 14.44° C | 25% | 1008.3 hPa | 2.03 mm | - | 0 W/m² | - |
| 1788499797 | 14.44° C | 26% | 1008.4 hPa | 2.29 mm | - | 0 W/m² | - |
| 1788499497 | 14.44° C | 25% | 1008.7 hPa | 2.29 mm | - | 0 W/m² | - |
| 1788499197 | 14.44° C | 25% | 1008.4 hPa | 2.03 mm | - | 0 W/m² | - |
| 1788498897 | 15° C | 25% | 1008.4 hPa | 2.03 mm | - | 0 W/m² | - |
| 1788498597 | 15° C | 25% | 1008.2 hPa | 2.03 mm | - | 0 W/m² | - |
| 1788498306 | 15° C | 25% | 1008.1 hPa | 1.78 mm | - | 0 W/m² | - |
| 1788497985 | 15° C | 25% | 1008.2 hPa | 1.78 mm | - | 0 W/m² | - |
| 1788497685 | 15° C | 25% | 1008.2 hPa | 1.78 mm | - | 0 W/m² | - |
| 1788497385 | 15° C | 25% | 1008.2 hPa | 1.52 mm | - | 0 W/m² | - |
| 1788497074 | 15° C | 25% | 1008.1 hPa | 1.52 mm | - | 0 W/m² | - |
| 1788496773 | 15° C | 25% | 1008.3 hPa | 1.78 mm | - | 0 W/m² | - |
| 1788496474 | 15° C | 25% | 1008.2 hPa | 1.52 mm | - | 0 W/m² | - |
| 1788496161 | 15° C | 24% | 1008.1 hPa | 1.27 mm | - | 0 W/m² | - |
* Rain latest hour (hover to see other rain measurements)
** Current wind speed in m/s (hover to see current wind gust speed)